SL-16 DEB, 22375

Orbit data source: Space-Track

SL-16 DEB, 22375 is space debris in LEO originally from a launch on Fri, 25 Dec 1992 UTC launched from the Tyuratam Missile And Space Complex (TTMTR). Debris objects in space refer to the collection of defunct objects orbiting the Earth. Examples of debris include non-operational satellites, rocket bodies, and fragments generated from explosions, collisions, or faulty payload assembly.

Loading next visibility...
Identifier
22375, 1992-093BQ
Orbit
LEO
Country
Flag of CISCIS
Related business
Manufacturer
Unknown
Mission
Spacecraft
Bus & Motor
Unknown
Mass
Unknown
Launch date (UTC)
1992-12-25 (33 years ago)
Launch vehicle
Unknown
Launch site
Tyuratam Missile And Space Complex (TTMTR)
Object type
Payload
Rocket body
Debris
Shape & HBR
Unknown shape, 0.2 m
Radar Cross Section
Medium (>0.1 m² and <1 m²)

Expand to show TLE details & history
Last TLE update: 13 hours ago

TLE from 13 hours ago
0 SL-16 DEB
1 22375U 92093BQ  26133.38750866  .00000023  00000-0  44707-4 0  9991
2 22375  70.8160 217.5912 0087082 103.5396 331.3064 14.01555556704190
Epoch: 2026-05-13T09:18Z
TLE epoch observation values (Epoch: 2026-05-13T09:18:00.748Z)
Latitude
65.54063°
Longitude
-103.52202°
Altitude
843.79 km
Speed
7.466 km/s
True Right ascension
17h 48m 31s
True Declination
65° 24' 44"
Sunlit
Object was in daylight at epoch
Visualization orbit readout
Latitude
Unknown
Longitude
Unknown
Altitude
Unknown
Speed
Unknown
Apparent Right ascension
Unknown
Apparent Declination
Unknown
Sunlit
N/A
Visualization observer readout
Local Sidereal Time
06:53:35
Azimuth
Unknown
Elevation
Unknown
Doppler factor
Unknown
Orbital elements
Apogee altitude
949.63 km
Perigee altitude
823.109 km
Semi-major axis
7,264.506 km
Eccentricity
0.00871
Inclination
70.816°
RAAN
217.5912°
Arg. of periapsis
103.5396°
True anomaly
330.82268°
Mean anomaly
331.3064°
Eccentric anomaly
331.065°
Mean motion
3.50537 °/min
Orbital period
102.7 mins
BSTAR
0.000044707
Loading maneuver chart data...
Computing Atmospheric mass density...
Loading historical data...
Loading historical data...
Loading historical data...
Loading historical data...
Loading historical data...
Loading historical data...
Loading historical data...

Documentation

Showing up to 5 results
|